TimeCET,TemperatureF,Dew PointF,Humidity,Sea Level PressureIn,VisibilityMPH,Wind Direction,Wind SpeedMPH,Gust SpeedMPH,PrecipitationIn,Events,Conditions,WindDirDegrees,DateUTC
7:00 AM,44.6,39.2,81,29.92,6.2,SW,3.5,-,N/A,,Mostly Cloudy,220,2013-03-01 06:00:00
7:30 AM,46.4,39.2,76,29.92,6.2,Variable,3.5,-,N/A,,Mostly Cloudy,0,2013-03-01 06:30:00
8:00 AM,46.4,41.0,81,29.92,6.2,Variable,3.5,-,N/A,,Mostly Cloudy,0,2013-03-01 07:00:00
8:30 AM,46.4,39.2,76,29.92,6.2,South,4.6,-,N/A,,Mostly Cloudy,170,2013-03-01 07:30:00
9:00 AM,48.2,41.0,76,29.92,6.2,SSE,3.5,-,N/A,,Mostly Cloudy,160,2013-03-01 08:00:00
9:30 AM,50.0,41.0,71,29.89,6.2,Variable,2.3,-,N/A,,Mostly Cloudy,0,2013-03-01 08:30:00
10:00 AM,51.8,41.0,67,29.89,6.2,Variable,1.2,-,N/A,,Mostly Cloudy,0,2013-03-01 09:00:00
10:30 AM,51.8,39.2,62,29.89,6.2,South,3.5,-,N/A,,Mostly Cloudy,170,2013-03-01 09:30:00
11:00 AM,51.8,41.0,67,29.89,6.2,Variable,2.3,-,N/A,,Mostly Cloudy,0,2013-03-01 10:00:00
11:30 AM,51.8,41.0,67,29.92,6.2,Variable,2.3,-,N/A,,Mostly Cloudy,0,2013-03-01 10:30:00
12:00 PM,51.8,42.8,71,29.92,6.2,Variable,2.3,-,N/A,Rain,Light Rain,0,2013-03-01 11:00:00
12:30 PM,51.8,42.8,71,29.89,6.2,Variable,2.3,-,N/A,Rain,Light Rain,0,2013-03-01 11:30:00
1:00 PM,51.8,42.8,71,29.89,6.2,SE,8.1,-,N/A,,Mostly Cloudy,140,2013-03-01 12:00:00
1:30 PM,53.6,41.0,62,29.86,6.2,Variable,3.5,-,N/A,Rain,Light Rain,0,2013-03-01 12:30:00
2:00 PM,55.4,42.8,63,29.83,6.2,Variable,3.5,-,N/A,,Mostly Cloudy,0,2013-03-01 13:00:00
2:30 PM,57.2,41.0,55,29.80,6.2,Variable,1.2,-,N/A,,Mostly Cloudy,0,2013-03-01 13:30:00
3:00 PM,60.8,41.0,48,29.80,6.2,Variable,2.3,-,N/A,,Mostly Cloudy,0,2013-03-01 14:00:00
3:30 PM,57.2,41.0,55,29.77,6.2,NE,16.1,33.4,N/A,,Mostly Cloudy,40,2013-03-01 14:30:00
4:00 PM,57.2,41.0,55,29.77,6.2,NE,21.9,-,N/A,,Mostly Cloudy,50,2013-03-01 15:00:00
4:30 PM,59.0,37.4,45,29.77,6.2,NE,19.6,-,N/A,,Mostly Cloudy,50,2013-03-01 15:30:00
5:00 PM,57.2,39.2,51,29.77,6.2,East,15.0,28.8,N/A,,Mostly Cloudy,90,2013-03-01 16:00:00
5:30 PM,55.4,37.4,51,29.77,6.2,East,15.0,31.1,N/A,,Scattered Clouds,80,2013-03-01 16:30:00